owner,sensor,date,latitude,longitude,vertical_datum,sea_water_temperature,qcFlag 
TCOON,ioos:station:TCOON:076:1,2013-12-14T16:00:00Z,27.8918,-97.6105,0.0,13.7,2 
TCOON,ioos:station:TCOON:076:1,2013-12-14T16:30:00Z,27.8918,-97.6105,0.0,13.7,2 
TCOON,ioos:station:TCOON:076:1,2013-12-14T17:00:00Z,27.8918,-97.6105,0.0,13.9,2 
TCOON,ioos:station:TCOON:076:1,2013-12-14T17:30:00Z,27.8918,-97.6105,0.0,14.1,2 
TCOON,ioos:station:TCOON:076:1,2013-12-14T19:00:00Z,27.8918,-97.6105,0.0,14.6,2 
TCOON,ioos:station:TCOON:076:1,2013-12-14T19:30:00Z,27.8918,-97.6105,0.0,14.7,2 
TCOON,ioos:station:TCOON:076:1,2013-12-14T21:30:00Z,27.8918,-97.6105,0.0,15.1,2 
TCOON,ioos:station:TCOON:076:1,2013-12-14T22:00:00Z,27.8918,-97.6105,0.0,15.0,2 
TCOON,ioos:station:TCOON:076:1,2013-12-14T22:30:00Z,27.8918,-97.6105,0.0,14.9,2 
TCOON,ioos:station:TCOON:076:1,2013-12-15T18:30:00Z,27.8918,-97.6105,0.0,13.1,2 
TCOON,ioos:station:TCOON:076:1,2013-12-15T19:00:00Z,27.8918,-97.6105,0.0,13.3,2 
TCOON,ioos:station:TCOON:076:1,2013-12-15T20:00:00Z,27.8918,-97.6105,0.0,13.8,2 
TCOON,ioos:station:TCOON:076:1,2013-12-15T21:00:00Z,27.8918,-97.6105,0.0,14.3,2 
TCOON,ioos:station:TCOON:076:1,2013-12-15T22:30:00Z,27.8918,-97.6105,0.0,14.4,2 
TCOON,ioos:station:TCOON:076:1,2013-12-15T23:00:00Z,27.8918,-97.6105,0.0,14.4,2 
TCOON,ioos:station:TCOON:076:1,2013-12-15T23:30:00Z,27.8918,-97.6105,0.0,14.5,2 
TCOON,ioos:station:TCOON:076:1,2013-12-16T00:00:00Z,27.8918,-97.6105,0.0,14.4,2 
TCOON,ioos:station:TCOON:076:1,2013-12-16T01:00:00Z,27.8918,-97.6105,0.0,14.2,2 
TCOON,ioos:station:TCOON:076:1,2013-12-16T01:30:00Z,27.8918,-97.6105,0.0,14.2,2 
TCOON,ioos:station:TCOON:076:1,2013-12-16T02:00:00Z,27.8918,-97.6105,0.0,14.1,2 
TCOON,ioos:station:TCOON:076:1,2013-12-16T02:30:00Z,27.8918,-97.6105,0.0,14.1,2 
TCOON,ioos:station:TCOON:076:1,2013-12-16T03:00:00Z,27.8918,-97.6105,0.0,14.0,2 
TCOON,ioos:station:TCOON:076:1,2013-12-16T03:30:00Z,27.8918,-97.6105,0.0,14.2,2 
TCOON,ioos:station:TCOON:076:1,2013-12-16T05:00:00Z,27.8918,-97.6105,0.0,14.3,2 
TCOON,ioos:station:TCOON:076:1,2013-12-16T05:30:00Z,27.8918,-97.6105,0.0,14.3,2 
TCOON,ioos:station:TCOON:076:1,2013-12-16T06:00:00Z,27.8918,-97.6105,0.0,14.2,2 
TCOON,ioos:station:TCOON:076:1,2013-12-16T07:00:00Z,27.8918,-97.6105,0.0,14.2,2 
TCOON,ioos:station:TCOON:076:1,2013-12-16T08:30:00Z,27.8918,-97.6105,0.0,14.0,2 
TCOON,ioos:station:TCOON:076:1,2013-12-16T09:00:00Z,27.8918,-97.6105,0.0,14.0,2 
TCOON,ioos:station:TCOON:076:1,2013-12-16T09:30:00Z,27.8918,-97.6105,0.0,14.1,2 
TCOON,ioos:station:TCOON:076:1,2013-12-16T10:30:00Z,27.8918,-97.6105,0.0,13.2,2 
TCOON,ioos:station:TCOON:076:1,2013-12-16T11:00:00Z,27.8918,-97.6105,0.0,13.5,2 
TCOON,ioos:station:TCOON:076:1,2013-12-16T13:00:00Z,27.8918,-97.6105,0.0,13.7,2 
TCOON,ioos:station:TCOON:076:1,2013-12-16T14:00:00Z,27.8918,-97.6105,0.0,13.6,2 
TCOON,ioos:station:TCOON:076:1,2013-12-16T15:00:00Z,27.8918,-97.6105,0.0,12.8,2 
TCOON,ioos:station:TCOON:076:1,2013-12-16T15:30:00Z,27.8918,-97.6105,0.0,13.6,2 
TCOON,ioos:station:TCOON:076:1,2013-12-16T16:00:00Z,27.8918,-97.6105,0.0,13.7,2 
TCOON,ioos:station:TCOON:076:1,2013-12-16T16:30:00Z,27.8918,-97.6105,0.0,13.8,2 
TCOON,ioos:station:TCOON:076:1,2013-12-16T17:00:00Z,27.8918,-97.6105,0.0,13.4,2 
TCOON,ioos:station:TCOON:076:1,2013-12-16T19:00:00Z,27.8918,-97.6105,0.0,14.3,2 
TCOON,ioos:station:TCOON:076:1,2013-12-16T20:00:00Z,27.8918,-97.6105,0.0,14.6,2 
TCOON,ioos:station:TCOON:076:1,2013-12-16T20:30:00Z,27.8918,-97.6105,0.0,14.6,2 
TCOON,ioos:station:TCOON:076:1,2013-12-16T22:00:00Z,27.8918,-97.6105,0.0,14.4,2 
TCOON,ioos:station:TCOON:076:1,2013-12-16T22:30:00Z,27.8918,-97.6105,0.0,14.8,2 
TCOON,ioos:station:TCOON:076:1,2013-12-16T23:30:00Z,27.8918,-97.6105,0.0,15.2,2 
TCOON,ioos:station:TCOON:076:1,2013-12-17T01:00:00Z,27.8918,-97.6105,0.0,15.0,2 
TCOON,ioos:station:TCOON:076:1,2013-12-17T02:00:00Z,27.8918,-97.6105,0.0,14.8,2 
TCOON,ioos:station:TCOON:076:1,2013-12-17T02:30:00Z,27.8918,-97.6105,0.0,14.9,2 
TCOON,ioos:station:TCOON:076:1,2013-12-17T07:30:00Z,27.8918,-97.6105,0.0,14.9,2 
TCOON,ioos:station:TCOON:076:1,2013-12-17T08:00:00Z,27.8918,-97.6105,0.0,14.4,2 
TCOON,ioos:station:TCOON:076:1,2013-12-17T18:00:00Z,27.8918,-97.6105,0.0,13.5,2 
TCOON,ioos:station:TCOON:076:1,2013-12-17T20:00:00Z,27.8918,-97.6105,0.0,13.7,2 
TCOON,ioos:station:TCOON:076:1,2013-12-17T20:30:00Z,27.8918,-97.6105,0.0,13.8,2 
TCOON,ioos:station:TCOON:076:1,2013-12-17T21:30:00Z,27.8918,-97.6105,0.0,14.8,2 
TCOON,ioos:station:TCOON:076:1,2013-12-17T23:00:00Z,27.8918,-97.6105,0.0,15.2,2 
TCOON,ioos:station:TCOON:076:1,2013-12-18T00:30:00Z,27.8918,-97.6105,0.0,15.1,2 
TCOON,ioos:station:TCOON:076:1,2013-12-18T01:00:00Z,27.8918,-97.6105,0.0,15.0,2 
TCOON,ioos:station:TCOON:076:1,2013-12-18T01:30:00Z,27.8918,-97.6105,0.0,14.8,2 
TCOON,ioos:station:TCOON:076:1,2013-12-18T03:00:00Z,27.8918,-97.6105,0.0,14.8,2 
TCOON,ioos:station:TCOON:076:1,2013-12-18T04:00:00Z,27.8918,-97.6105,0.0,14.7,2 
TCOON,ioos:station:TCOON:076:1,2013-12-18T05:00:00Z,27.8918,-97.6105,0.0,14.9,2 
TCOON,ioos:station:TCOON:076:1,2013-12-18T06:00:00Z,27.8918,-97.6105,0.0,15.1,2 
TCOON,ioos:station:TCOON:076:1,2013-12-18T06:30:00Z,27.8918,-97.6105,0.0,14.9,2 
TCOON,ioos:station:TCOON:076:1,2013-12-18T07:00:00Z,27.8918,-97.6105,0.0,15.1,2 
TCOON,ioos:station:TCOON:076:1,2013-12-18T07:30:00Z,27.8918,-97.6105,0.0,14.9,2 
TCOON,ioos:station:TCOON:076:1,2013-12-18T10:00:00Z,27.8918,-97.6105,0.0,14.3,2 
TCOON,ioos:station:TCOON:076:1,2013-12-18T14:30:00Z,27.8918,-97.6105,0.0,14.2,2 
TCOON,ioos:station:TCOON:076:1,2013-12-18T15:00:00Z,27.8918,-97.6105,0.0,14.2,2 
TCOON,ioos:station:TCOON:076:1,2013-12-18T16:00:00Z,27.8918,-97.6105,0.0,14.5,2 
TCOON,ioos:station:TCOON:076:1,2013-12-18T16:30:00Z,27.8918,-97.6105,0.0,14.5,2 
TCOON,ioos:station:TCOON:076:1,2013-12-18T17:00:00Z,27.8918,-97.6105,0.0,14.7,2 
TCOON,ioos:station:TCOON:076:1,2013-12-18T17:30:00Z,27.8918,-97.6105,0.0,14.7,2 
TCOON,ioos:station:TCOON:076:1,2013-12-18T18:30:00Z,27.8918,-97.6105,0.0,15.3,2 
TCOON,ioos:station:TCOON:076:1,2013-12-18T19:00:00Z,27.8918,-97.6105,0.0,15.3,2 
TCOON,ioos:station:TCOON:076:1,2013-12-18T19:30:00Z,27.8918,-97.6105,0.0,15.7,2 
TCOON,ioos:station:TCOON:076:1,2013-12-18T20:00:00Z,27.8918,-97.6105,0.0,15.7,2 
TCOON,ioos:station:TCOON:076:1,2013-12-18T20:30:00Z,27.8918,-97.6105,0.0,16.0,2 
TCOON,ioos:station:TCOON:076:1,2013-12-18T21:00:00Z,27.8918,-97.6105,0.0,16.3,2 
TCOON,ioos:station:TCOON:076:1,2013-12-18T21:30:00Z,27.8918,-97.6105,0.0,16.4,2 
TCOON,ioos:station:TCOON:076:1,2013-12-18T22:00:00Z,27.8918,-97.6105,0.0,16.5,2 
TCOON,ioos:station:TCOON:076:1,2013-12-19T02:30:00Z,27.8918,-97.6105,0.0,15.5,2 
TCOON,ioos:station:TCOON:076:1,2013-12-19T03:30:00Z,27.8918,-97.6105,0.0,15.7,2 
TCOON,ioos:station:TCOON:076:1,2013-12-19T06:00:00Z,27.8918,-97.6105,0.0,16.0,2 
TCOON,ioos:station:TCOON:076:1,2013-12-19T07:00:00Z,27.8918,-97.6105,0.0,15.9,2 
TCOON,ioos:station:TCOON:076:1,2013-12-19T07:30:00Z,27.8918,-97.6105,0.0,15.9,2 
TCOON,ioos:station:TCOON:076:1,2013-12-19T08:00:00Z,27.8918,-97.6105,0.0,15.9,2 
TCOON,ioos:station:TCOON:076:1,2013-12-19T09:30:00Z,27.8918,-97.6105,0.0,16.0,2 
TCOON,ioos:station:TCOON:076:1,2013-12-19T10:30:00Z,27.8918,-97.6105,0.0,16.0,2 
TCOON,ioos:station:TCOON:076:1,2013-12-19T13:00:00Z,27.8918,-97.6105,0.0,15.9,2 
TCOON,ioos:station:TCOON:076:1,2013-12-19T14:30:00Z,27.8918,-97.6105,0.0,15.9,2 
TCOON,ioos:station:TCOON:076:1,2013-12-19T15:00:00Z,27.8918,-97.6105,0.0,15.9,2 
TCOON,ioos:station:TCOON:076:1,2013-12-21T19:00:00Z,27.8918,-97.6105,0.0,19.7,2 
TCOON,ioos:station:TCOON:076:1,2013-12-21T19:30:00Z,27.8918,-97.6105,0.0,19.7,2 
TCOON,ioos:station:TCOON:076:1,2013-12-21T22:30:00Z,27.8918,-97.6105,0.0,19.7,2 
TCOON,ioos:station:TCOON:076:1,2013-12-21T23:00:00Z,27.8918,-97.6105,0.0,19.7,2 
TCOON,ioos:station:TCOON:076:1,2013-12-21T23:30:00Z,27.8918,-97.6105,0.0,19.6,2 
TCOON,ioos:station:TCOON:076:1,2013-12-22T04:30:00Z,27.8918,-97.6105,0.0,19.2,2 
TCOON,ioos:station:TCOON:076:1,2013-12-22T06:30:00Z,27.8918,-97.6105,0.0,19.3,2 
TCOON,ioos:station:TCOON:076:1,2013-12-22T08:00:00Z,27.8918,-97.6105,0.0,19.5,2 
TCOON,ioos:station:TCOON:076:1,2013-12-22T09:00:00Z,27.8918,-97.6105,0.0,19.1,2 
TCOON,ioos:station:TCOON:076:1,2013-12-22T10:30:00Z,27.8918,-97.6105,0.0,19.4,2 
TCOON,ioos:station:TCOON:076:1,2013-12-22T12:00:00Z,27.8918,-97.6105,0.0,19.8,2 
TCOON,ioos:station:TCOON:076:1,2013-12-22T13:30:00Z,27.8918,-97.6105,0.0,19.0,2 
TCOON,ioos:station:TCOON:076:1,2013-12-22T14:00:00Z,27.8918,-97.6105,0.0,19.4,2 
TCOON,ioos:station:TCOON:076:1,2013-12-22T14:30:00Z,27.8918,-97.6105,0.0,19.2,2 
TCOON,ioos:station:TCOON:076:1,2013-12-22T15:00:00Z,27.8918,-97.6105,0.0,19.1,2 
TCOON,ioos:station:TCOON:076:1,2013-12-22T15:30:00Z,27.8918,-97.6105,0.0,18.5,2 
TCOON,ioos:station:TCOON:076:1,2013-12-22T16:00:00Z,27.8918,-97.6105,0.0,18.5,2 
TCOON,ioos:station:TCOON:076:1,2013-12-22T16:30:00Z,27.8918,-97.6105,0.0,18.4,2 
TCOON,ioos:station:TCOON:076:1,2013-12-22T17:00:00Z,27.8918,-97.6105,0.0,18.6,2 
TCOON,ioos:station:TCOON:076:1,2013-12-22T19:00:00Z,27.8918,-97.6105,0.0,19.3,2 
TCOON,ioos:station:TCOON:076:1,2013-12-22T19:30:00Z,27.8918,-97.6105,0.0,19.3,2 
TCOON,ioos:station:TCOON:076:1,2013-12-22T20:00:00Z,27.8918,-97.6105,0.0,19.5,2 
TCOON,ioos:station:TCOON:076:1,2013-12-23T00:30:00Z,27.8918,-97.6105,0.0,19.4,2 
TCOON,ioos:station:TCOON:076:1,2013-12-23T01:00:00Z,27.8918,-97.6105,0.0,19.2,2 
TCOON,ioos:station:TCOON:076:1,2013-12-24T00:00:00Z,27.8918,-97.6105,0.0,17.4,2 
TCOON,ioos:station:TCOON:076:1,2013-12-24T02:00:00Z,27.8918,-97.6105,0.0,17.0,2 
TCOON,ioos:station:TCOON:076:1,2013-12-24T02:30:00Z,27.8918,-97.6105,0.0,16.8,2 
TCOON,ioos:station:TCOON:076:1,2013-12-24T04:00:00Z,27.8918,-97.6105,0.0,16.7,2 
TCOON,ioos:station:TCOON:076:1,2013-12-24T05:00:00Z,27.8918,-97.6105,0.0,16.5,2 
TCOON,ioos:station:TCOON:076:1,2013-12-24T05:30:00Z,27.8918,-97.6105,0.0,16.4,2 
TCOON,ioos:station:TCOON:076:1,2013-12-24T11:00:00Z,27.8918,-97.6105,0.0,15.5,2 
TCOON,ioos:station:TCOON:076:1,2013-12-24T11:30:00Z,27.8918,-97.6105,0.0,15.4,2 
TCOON,ioos:station:TCOON:076:1,2013-12-24T13:00:00Z,27.8918,-97.6105,0.0,15.3,2 
TCOON,ioos:station:TCOON:076:1,2013-12-24T16:30:00Z,27.8918,-97.6105,0.0,15.7,2 
TCOON,ioos:station:TCOON:076:1,2013-12-24T19:30:00Z,27.8918,-97.6105,0.0,16.2,2 
TCOON,ioos:station:TCOON:076:1,2013-12-24T20:30:00Z,27.8918,-97.6105,0.0,16.0,2 
TCOON,ioos:station:TCOON:076:1,2013-12-24T21:30:00Z,27.8918,-97.6105,0.0,16.3,2 
TCOON,ioos:station:TCOON:076:1,2013-12-24T22:00:00Z,27.8918,-97.6105,0.0,16.4,2 
TCOON,ioos:station:TCOON:076:1,2013-12-24T23:00:00Z,27.8918,-97.6105,0.0,16.4,2 
TCOON,ioos:station:TCOON:076:1,2013-12-25T00:00:00Z,27.8918,-97.6105,0.0,16.3,2 
TCOON,ioos:station:TCOON:076:1,2013-12-25T05:30:00Z,27.8918,-97.6105,0.0,15.9,2 
TCOON,ioos:station:TCOON:076:1,2013-12-25T17:00:00Z,27.8918,-97.6105,0.0,15.5,2 
TCOON,ioos:station:TCOON:076:1,2013-12-25T17:30:00Z,27.8918,-97.6105,0.0,15.6,2 
TCOON,ioos:station:TCOON:076:1,2013-12-25T18:30:00Z,27.8918,-97.6105,0.0,15.5,2 
TCOON,ioos:station:TCOON:076:1,2013-12-25T19:30:00Z,27.8918,-97.6105,0.0,15.4,2 
TCOON,ioos:station:TCOON:076:1,2013-12-25T20:00:00Z,27.8918,-97.6105,0.0,15.4,2 
TCOON,ioos:station:TCOON:076:1,2013-12-25T22:00:00Z,27.8918,-97.6105,0.0,15.9,2 
TCOON,ioos:station:TCOON:076:1,2013-12-26T01:00:00Z,27.8918,-97.6105,0.0,15.5,2 
TCOON,ioos:station:TCOON:076:1,2013-12-26T10:00:00Z,27.8918,-97.6105,0.0,15.2,2 
TCOON,ioos:station:TCOON:076:1,2013-12-26T16:30:00Z,27.8918,-97.6105,0.0,15.2,2 
TCOON,ioos:station:TCOON:076:1,2013-12-26T17:30:00Z,27.8918,-97.6105,0.0,15.2,2 
TCOON,ioos:station:TCOON:076:1,2013-12-27T17:00:00Z,27.8918,-97.6105,0.0,14.9,2 
TCOON,ioos:station:TCOON:076:1,2013-12-27T18:30:00Z,27.8918,-97.6105,0.0,15.0,2 
TCOON,ioos:station:TCOON:076:1,2013-12-27T20:00:00Z,27.8918,-97.6105,0.0,15.2,2 
TCOON,ioos:station:TCOON:076:1,2013-12-28T04:00:00Z,27.8918,-97.6105,0.0,14.6,2 
TCOON,ioos:station:TCOON:076:1,2013-12-28T05:00:00Z,27.8918,-97.6105,0.0,14.4,2 
TCOON,ioos:station:TCOON:076:1,2013-12-28T05:30:00Z,27.8918,-97.6105,0.0,14.4,2 
TCOON,ioos:station:TCOON:076:1,2013-12-28T06:30:00Z,27.8918,-97.6105,0.0,14.2,2 
TCOON,ioos:station:TCOON:076:1,2013-12-28T08:00:00Z,27.8918,-97.6105,0.0,14.2,2 
TCOON,ioos:station:TCOON:076:1,2013-12-28T08:30:00Z,27.8918,-97.6105,0.0,14.1,2 
TCOON,ioos:station:TCOON:076:1,2013-12-28T09:00:00Z,27.8918,-97.6105,0.0,14.0,2 
TCOON,ioos:station:TCOON:076:1,2013-12-28T10:00:00Z,27.8918,-97.6105,0.0,14.1,2 
TCOON,ioos:station:TCOON:076:1,2013-12-28T11:00:00Z,27.8918,-97.6105,0.0,14.0,2 
TCOON,ioos:station:TCOON:076:1,2013-12-28T12:00:00Z,27.8918,-97.6105,0.0,14.1,2 
TCOON,ioos:station:TCOON:076:1,2013-12-28T12:30:00Z,27.8918,-97.6105,0.0,14.1,2 
TCOON,ioos:station:TCOON:076:1,2013-12-28T13:30:00Z,27.8918,-97.6105,0.0,13.8,2 
TCOON,ioos:station:TCOON:076:1,2013-12-28T14:00:00Z,27.8918,-97.6105,0.0,13.8,2 
TCOON,ioos:station:TCOON:076:1,2013-12-28T16:30:00Z,27.8918,-97.6105,0.0,13.9,2 
TCOON,ioos:station:TCOON:076:1,2013-12-28T17:30:00Z,27.8918,-97.6105,0.0,14.1,2 
TCOON,ioos:station:TCOON:076:1,2013-12-28T18:30:00Z,27.8918,-97.6105,0.0,14.3,2 
TCOON,ioos:station:TCOON:076:1,2013-12-28T19:00:00Z,27.8918,-97.6105,0.0,14.5,2 
TCOON,ioos:station:TCOON:076:1,2013-12-28T19:30:00Z,27.8918,-97.6105,0.0,14.7,2 
TCOON,ioos:station:TCOON:076:1,2013-12-28T20:30:00Z,27.8918,-97.6105,0.0,15.2,2 
TCOON,ioos:station:TCOON:076:1,2013-12-28T21:00:00Z,27.8918,-97.6105,0.0,15.5,2 
TCOON,ioos:station:TCOON:076:1,2013-12-28T23:00:00Z,27.8918,-97.6105,0.0,15.5,2 
TCOON,ioos:station:TCOON:076:1,2013-12-29T01:00:00Z,27.8918,-97.6105,0.0,15.4,2 
TCOON,ioos:station:TCOON:076:1,2013-12-29T02:00:00Z,27.8918,-97.6105,0.0,15.4,2 
TCOON,ioos:station:TCOON:076:1,2013-12-29T03:30:00Z,27.8918,-97.6105,0.0,15.1,2 
TCOON,ioos:station:TCOON:076:1,2013-12-29T04:00:00Z,27.8918,-97.6105,0.0,15.0,2 
TCOON,ioos:station:TCOON:076:1,2013-12-29T06:00:00Z,27.8918,-97.6105,0.0,15.1,2 
TCOON,ioos:station:TCOON:076:1,2013-12-29T06:30:00Z,27.8918,-97.6105,0.0,14.9,2 
TCOON,ioos:station:TCOON:076:1,2013-12-29T07:30:00Z,27.8918,-97.6105,0.0,14.9,2 
TCOON,ioos:station:TCOON:076:1,2013-12-29T08:00:00Z,27.8918,-97.6105,0.0,14.7,2 
TCOON,ioos:station:TCOON:076:1,2013-12-29T09:30:00Z,27.8918,-97.6105,0.0,14.6,2 
TCOON,ioos:station:TCOON:076:1,2013-12-29T10:00:00Z,27.8918,-97.6105,0.0,14.4,2 
TCOON,ioos:station:TCOON:076:1,2013-12-29T11:30:00Z,27.8918,-97.6105,0.0,15.0,2 
TCOON,ioos:station:TCOON:076:1,2013-12-29T12:00:00Z,27.8918,-97.6105,0.0,14.9,2 
TCOON,ioos:station:TCOON:076:1,2013-12-29T15:30:00Z,27.8918,-97.6105,0.0,14.4,2 
TCOON,ioos:station:TCOON:076:1,2013-12-29T16:00:00Z,27.8918,-97.6105,0.0,14.3,2 
TCOON,ioos:station:TCOON:076:1,2013-12-29T17:30:00Z,27.8918,-97.6105,0.0,14.7,2 
TCOON,ioos:station:TCOON:076:1,2013-12-29T20:30:00Z,27.8918,-97.6105,0.0,15.5,2 
TCOON,ioos:station:TCOON:076:1,2013-12-29T21:00:00Z,27.8918,-97.6105,0.0,15.7,2 
TCOON,ioos:station:TCOON:076:1,2013-12-29T22:00:00Z,27.8918,-97.6105,0.0,16.2,2 
TCOON,ioos:station:TCOON:076:1,2013-12-29T22:30:00Z,27.8918,-97.6105,0.0,16.5,2 
TCOON,ioos:station:TCOON:076:1,2013-12-29T23:30:00Z,27.8918,-97.6105,0.0,16.3,2 
TCOON,ioos:station:TCOON:076:1,2013-12-30T04:00:00Z,27.8918,-97.6105,0.0,16.3,2 
TCOON,ioos:station:TCOON:076:1,2013-12-30T05:30:00Z,27.8918,-97.6105,0.0,16.2,2 
TCOON,ioos:station:TCOON:076:1,2013-12-30T09:30:00Z,27.8918,-97.6105,0.0,15.0,2 
TCOON,ioos:station:TCOON:076:1,2013-12-30T12:00:00Z,27.8918,-97.6105,0.0,14.4,2 
TCOON,ioos:station:TCOON:076:1,2013-12-30T13:00:00Z,27.8918,-97.6105,0.0,14.1,2 
TCOON,ioos:station:TCOON:076:1,2013-12-30T14:00:00Z,27.8918,-97.6105,0.0,14.0,2 
TCOON,ioos:station:TCOON:076:1,2013-12-30T18:30:00Z,27.8918,-97.6105,0.0,13.6,2 
TCOON,ioos:station:TCOON:076:1,2013-12-30T19:30:00Z,27.8918,-97.6105,0.0,13.7,2 
TCOON,ioos:station:TCOON:076:1,2013-12-31T04:00:00Z,27.8918,-97.6105,0.0,13.2,2 
TCOON,ioos:station:TCOON:076:1,2013-12-31T09:30:00Z,27.8918,-97.6105,0.0,12.6,2 
TCOON,ioos:station:TCOON:076:1,2013-12-31T10:00:00Z,27.8918,-97.6105,0.0,12.7,2 
TCOON,ioos:station:TCOON:076:1,2013-12-31T10:30:00Z,27.8918,-97.6105,0.0,12.7,2 
TCOON,ioos:station:TCOON:076:1,2013-12-31T11:30:00Z,27.8918,-97.6105,0.0,12.4,2 
TCOON,ioos:station:TCOON:076:1,2013-12-31T12:00:00Z,27.8918,-97.6105,0.0,12.7,2 
TCOON,ioos:station:TCOON:076:1,2013-12-31T13:30:00Z,27.8918,-97.6105,0.0,12.8,2 
TCOON,ioos:station:TCOON:076:1,2013-12-31T14:30:00Z,27.8918,-97.6105,0.0,12.6,2 
 
DISCLAIMER: The Gulf of Mexico Coastal and Ocean Observing (GCOOS) Data Portal aggregates data from the regional data providers for the convenience of all data users. Data published on this website should not be used for navigation or certain other uses as we cannot guarantee data accuracy or availability. The data and delivery services are provided 'as is' without warranty of any kind. Data Source: Gulf of Mexico Coastal Ocean Observing System Data Portal (http://data.gcoos.org/) 
